Regional Weather Roundup
Issued by NWS

Home | Current Version | Previous Version | Graphics & Text | Print | Product List | Glossary On
Versions: 1 2 3 4 5 6 7 8 9 10 11 12 13 14 15 16 17 18 19 20 21 22 23 24 25 26 27 28 29 30 31 32 33 34 35 36 37 38 39 40 41 42 43 44 45 46 47 48 49 50
000
ASUS45 KBOU 192107
RWRCO

WEATHER ROUNDUP FOR COLORADO
NATIONAL WEATHER SERVICE DENVER/BOULDER CO
200 PM MST FRI DEC 19 2014

NOTE: "FAIR" INDICATES FEW OR NO CLOUDS BELOW 12000 FEET WITH NO
SIGNIFICANT WEATHER AND/OR OBSTRUCTIONS TO VISIBILITY.

COZ001>005-013-030-031-192200-
...NORTHWEST COLORADO...

CITY           SKY/WX    TMP DP  RH WIND       PRES   REMARKS
CRAIG          SUNNY     28  21  75 E9        30.18F WCI  19
HAYDEN         SUNNY     27  18  69 CALM      30.16F
MEEKER         MOSUNNY   26  21  81 SE5       30.17F WCI  20
MOUNT WERNER   NOT AVBL
STEAMBOAT SPGS CLOUDY    25  19  76 CALM      30.16S
WALDEN         SUNNY     27  14  59 SW18      30.08F WCI  13
$$

COZ006>008-011-192200-
...WEST CENTRAL VALLEYS...

CITY           SKY/WX    TMP DP  RH WIND       PRES   REMARKS
GRAND JUNCTION PTSUNNY   39  27  62 W3        30.22S
MONTROSE       MOSUNNY   40  22  48 E6        30.20F
EAGLE          MOSUNNY   36  19  51 SW16      30.17F
RIFLE          PTSUNNY   36  25  64 W8        30.20F
DELTA          MOSUNNY   42  25  51 CALM      30.21F
NUCLA          MOSUNNY   37  23  56 NW3       30.23F
$$

COZ017>023-064>068-192200-
...SOUTHWEST COLORADO...

CITY           SKY/WX    TMP DP  RH WIND       PRES   REMARKS
DURANGO        PTSUNNY   35  22  58 CALM      30.17F
CORTEZ         MOSUNNY   41  25  53 W8        30.17F
PAGOSA SPRINGS SUNNY     32  19  58 S6        30.16S WCI  26
TELLURIDE      SUNNY     28  12  51 CALM      30.17F
WOLF CREEK PAS MOSUNNY   18  18 100 MISG      30.11F
$$

COZ009-010-012-014-032>034-037-058>063-192200-
...CENTRAL COLORADO...

CITY           SKY/WX    TMP DP  RH WIND       PRES   REMARKS
ASPEN          MOSUNNY   29  15  56 NW5       30.14F WCI  24
BUENA VISTA    SUNNY     37   6  27 NW20      30.05S
COPPER MTN     FLURRIES  19  12  73 W10       30.08S WCI   8
BERTHOUD PASS  CLOUDY     7   1  78 MISG      30.03S
COTTONWOOD PAS SUNNY     32   1  27 W13       30.05F WCI  22
GUNNISON       CLOUDY    28  16  59 N7        30.18F WCI  21
KREMMLING      CLOUDY    30  19  64 CALM      30.16S
LEADVILLE      SUNNY     22   7  52 NW7G17    30.08F WCI  13
MONARCH PASS   CLOUDY    12   9  85 MISG      30.17S
SALIDA         SUNNY     38  13  36 SW10G24   30.14F
SUNLIGHT       LGT SNOW N/A N/A N/A CALM      30.14F
WILKERSON PASS SUNNY     19   5  53 W10G23    30.04F WCI   8
$$

COZ069>075-192200-
...SAN LUIS VALLEY/SANGRE DE CRISTO MOUNTAINS...

CITY           SKY/WX    TMP DP  RH WIND       PRES   REMARKS
ALAMOSA        SUNNY     34  14  43 CALM      30.11F
LA VETA PASS   SUNNY     23  12  63 S18       30.03F WCI   9
SAGUACHE       SUNNY     36  12  38 NW9G20    30.11F
$$

COZ035-036-038>040-192200-
...NORTHERN COLORADO FRONT RANGE...

CITY           SKY/WX    TMP DP  RH WIND       PRES   REMARKS
DENVER INTL AP MOSUNNY   45  10  24 SE8       29.99F
DMNS CITY PARK   N/A     47   9  21 S9        29.98F
AURORA         MOSUNNY   45   8  22 VRB7      30.00F
FRONT RANGE AP NOT AVBL
ERIE MUNI ARPT   N/A     49  10  20 S8G16     29.97F
BOULDER MUN AP SUNNY     50  12  22 E5        29.96F
CENTENNIAL     MOSUNNY   43  10  26 S7        30.00F
BROOMFIELD     NOT AVBL
FORT COLLINS   SUNNY     46  19  34 SE8       29.99F
LONGMONT       SUNNY     52  13  20 E7        29.98F
$$

COZ041-046-047-076>085-087-088-192200-
...PIKES PEAK/PALMER DIVIDE AND SOUTHERN FOOTHILLS...

CITY           SKY/WX    TMP DP  RH WIND       PRES   REMARKS
COLO. SPRINGS  MOSUNNY   43  11  27 CALM      30.03F
A. F. ACADEMY  SUNNY     44   8  22 W6        30.01F
ELLICOTT       NOT AVBL
FALCON         SUNNY     42   8  24 CALM      30.04S
FORT CARSON    SUNNY     44  13  29 S3        30.02F
LIMON          SUNNY     44  21  40 CALM      30.03F
MONUMENT HILL  SUNNY     37  12  35 W3        30.02S
TRINIDAD       SUNNY     47  14  26 E9        30.02F
$$

COZ042>045-048>051-090-091-192200-
...NORTHEAST COLORADO...

CITY           SKY/WX    TMP DP  RH WIND       PRES   REMARKS
GREELEY ARPT   SUNNY     48  18  29 CALM      29.98F
AKRON          SUNNY     37  27  67 SW9       30.02F
BURLINGTON     SUNNY     45  23  42 SW6       30.04F
WRAY           SUNNY     41  32  70 W7        30.04F
STERLING       SUNNY     32  28  86 S3        30.01F
HOLYOKE        NOT AVBL
FORT MORGAN    SUNNY     35  26  69 CALM      30.02F
$$

COZ086-089-092>099-192200-
...SOUTHEAST COLORADO...

CITY           SKY/WX    TMP DP  RH WIND       PRES   REMARKS
PUEBLO         SUNNY     48  19  31 CALM      30.02F
LA JUNTA       SUNNY     46  29  51 CALM      30.04F
LAMAR          SUNNY     45  32  60 MISG      30.05F
SPRINGFIELD    NOT AVBL
$$



USA.gov is the U.S. government's official web portal to all federal, state and local government web resources and services.